STARLINK-36036

Last updated on Wed Dec 31 2025 00:02:06 GMT+0000 (Coordinated Universal Time)

1 66608U 25270W 25364.63237155 .00108190 00000+0 25611-2 0 9999 2 66608 43.0005 88.8404 0001447 286.1703 73.8994 15.40694432 6953
UTC large
Height (km)
Speed (km/s)
/
Latitude / Longitude
Inclination (degrees)
Orbital Period (minutes)
Azimuth
Elevation
Range (km)
Doppler Factor

Next 0 passes for location: London (51.5072 / 0.1276)

Sorry there are no passes over London.